Simultaneous Nadir Overpasses (SNOs) Predictions

Prediction of SNOs between AQUA and METOP-B Satellite Orbit:

Table of predicted SNOs for the next 14.0 days since TLE Epoch: 8/20/2015
Index Date (AQUA) Time (AQUA) Lat,Lon (AQUA) SZA (AQUA ) Date (METOP-B) Time (METOP-B) Lat,Lon (METOP-B) SZA (METOP-B ) Distance(km) Time Diff (sec)
1 08/22/2015 07:28:52 73.67, 62.41 61.83 08/22/2015 07:27:40 73.68, 62.33 61.85 2.60 72
2 08/22/2015 08:18:20 -73.78,-130.19 118.04 08/22/2015 08:18:20 -73.79,-130.10 118.04 3.01 0
3 08/22/2015 09:07:48 73.83, 37.35 62.02 08/22/2015 09:08:59 73.81, 37.29 62.00 2.90 71
4 08/25/2015 03:03:06 73.70, 128.80 62.81 08/25/2015 03:02:02 73.71, 128.81 62.83 1.86 64
5 08/25/2015 03:52:33 -73.75, -63.68 117.13 08/25/2015 03:52:43 -73.77, -63.72 117.10 3.07 10
6 08/25/2015 04:42:06 74.06, 103.27 63.22 08/25/2015 04:43:16 74.09, 104.38 63.21 34.00 70
7 08/27/2015 22:37:19 73.68,-164.73 63.76 08/27/2015 22:36:25 73.70,-164.83 63.79 3.50 54
8 08/27/2015 23:26:47 -73.78, 2.70 116.12 08/27/2015 23:27:06 -73.76, 2.65 116.14 2.82 19
9 08/28/2015 00:16:26 74.40, 168.91 64.56 08/28/2015 00:17:32 74.42, 171.61 64.49 80.85 66
10 08/30/2015 18:11:32 73.73, -98.39 64.81 08/30/2015 18:10:46 73.72, -98.35 64.81 1.16 46
11 08/30/2015 19:00:59 -73.77, 69.16 115.14 08/30/2015 19:01:27 -73.79, 69.12 115.12 2.40 28
12 09/02/2015 13:45:45 73.74, -31.96 65.82 09/02/2015 13:45:08 73.75, -31.89 65.85 2.96 37
13 09/02/2015 14:35:13 -73.83, 135.48 114.07 09/02/2015 14:35:49 -73.82, 135.59 114.09 3.59 36




NCC Satellite Simultaneous Nadir Overpasses (SNOs) Prediction Service
